Flag for U.S.A. Weather past 2 weeks in Anchorage, Alaska, U.S.A.

Now
39 °F

Partly sunny.


Feels Like: 39 °F
Forecast: 36 / 41 °F
Wind: No wind

Location: Lake Hood Seaplane

Current Time: Oct 19, 2014 at 9:29:24 PM

Latest Report: Oct 19, 2014 at 6:53 PM


Visibility: 10 mi

Pressure: 29.07 "Hg

Humidity: 62%

Dew point: 27 °F

Location of AnchorageLocation

Historic Weather in Anchorage — Graph

°F

Anchorage temperature yesterday

Maximum temperature yesterday: 45 °F (at 3:53 PM)
Minimum temperature yesterday: 34 °F (at 11:53 PM)
Average temperature yesterday: 39 °F

Past Weeks' High & Low Weather Summary

 TemperatureHumidityPressure
High49 °F (Oct 13, 3:53 PM)89% (Oct 11, 7:53 AM)30.16 "Hg (Oct 11, 7:53 AM)
Low26 °F (Oct 8, 6:53 AM)35% (Oct 5, 4:53 PM)28.92 "Hg (Oct 10, 7:53 AM)
Average39 °F66%29.50 "Hg
* Reported Oct 4 6:53 PM — Oct 19 6:53 PM, Anchorage, Weather by CustomWeather, © 2014

Note: Actual official high and low records may vary slightly from our data, if they occured in-between our weather recording intervals... More about our weather records

Advertising

Anchorage weather history for previous 24 hours

 ConditionsComfort  
Time TempWeatherWind HumidityBarometerVisibility
6:53 PM
Oct 19
39 °FPartly sunny.No wind62%29.07 "Hg10 mi
5:53 PM39 °FSunny.No wind65%29.08 "Hg10 mi
4:53 PM41 °FSunny.3 mph58%29.10 "Hg10 mi
3:53 PM42 °FSunny.3 mph51%29.12 "Hg10 mi
2:53 PM41 °FSunny.No wind55%29.15 "Hg10 mi
1:53 PM39 °FSunny.5 mph65%29.17 "Hg10 mi
12:53 PM38 °FSunny.6 mph63%29.20 "Hg10 mi
11:53 AM37 °FSunny.3 mph67%29.21 "Hg10 mi
10:53 AM34 °FSunny.3 mph82%29.23 "Hg10 mi
9:53 AM31 °FSunny.No wind85%29.24 "Hg10 mi
8:53 AM29 °FClear.No wind82%29.24 "Hg10 mi
7:53 AM31 °FClear.No wind79%29.25 "Hg10 mi
6:53 AM30 °FClear.3 mph85%29.26 "Hg10 mi
5:53 AM30 °FClear.No wind85%29.26 "Hg9 mi
5:03 AM30 °FPassing clouds.No wind86%29.27 "Hg8 mi
4:53 AM31 °FClear.No wind82%29.27 "Hg9 mi
3:53 AM30 °FClear.No wind85%29.27 "Hg8 mi
2:53 AM31 °FClear.No wind82%29.28 "Hg10 mi
1:53 AM32 °FClear.No wind82%29.28 "Hg10 mi
12:53 AM32 °FClear.No wind82%29.29 "Hg10 mi
11:53 PM
Oct 18
34 °FClear.No wind79%29.28 "Hg10 mi
10:53 PM35 °FClear.No wind75%29.29 "Hg10 mi
9:53 PM37 °FPassing clouds.No wind79%29.28 "Hg10 mi
Weather by CustomWeather, © 2014

See weather overviewHow to use our weather pages